Weather History for KVTA - May, 2013

Change the Weather History Date:

Wednesday, May 15, 2013

  Actual Average Record
Temperature  
Mean Temperature 74 °F -  
Max Temperature 84 °F 73 °F 91 °F (1962)
Min Temperature 63 °F 49 °F 33 °F (1936)
Cooling Degree Days 8    
Growing Degree Days 24 (Base 50)    
Moisture  
Dew Point 58 °F    
Average Humidity 55    
Maximum Humidity 70    
Minimum Humidity 41    
Precipitation  
Precipitation 0.00 in - - ()
Sea Level Pressure  
Sea Level Pressure 29.79 in    
Wind  
Wind Speed 11 mph (WSW)    
Max Wind Speed 22 mph    
Max Gust Speed 31 mph    
Visibility 10 miles    
Events Thunderstorm    
Averages and records for this station are not official NWS values.
T = Trace of Precipitation, MM = Missing Value Source: NWS Daily Summary

Daily Weather History Graph

Daily Weather History Graph

Search for Another Location

Airport or City:

Trip Planner

Search our weather history database for the weather conditions in past years. The results will help you decide how hot, cold, wet, or windy it might be!

Date:

Astronomy

May. 15, 2013 Rise Set
Actual Time 6:14 AM EDT 8:38 PM EDT
Civil Twilight 5:43 AM EDT 9:09 PM EDT
Nautical Twilight 5:05 AM EDT 9:47 PM EDT
Astronomical Twilight 4:23 AM EDT 10:29 PM EDT
Moon 10:48 AM EDT (5/15) 12:24 AM EDT (5/15)
Length of Visible Light 15h 25m
Length of Day
14h 24m
Waxing Crescent, 26% of the Moon is Illuminated
May 15
Waxing Crescent
May 18
First Quarter
May 25
Full
May 31
Last Quarter
Jun 8
New

Hourly Weather History & Observations

Time (EDT) Temp. Heat Index Dew Point Humidity Pressure Visibility Wind Dir Wind Speed Gust Speed Precip Events Conditions
12:54 AM 63.0 °F - 53.1 °F 70% 29.82 in 10.0 mi WSW 6.9 mph - N/A   Clear
1:54 AM 68.0 °F - 55.9 °F 65% 29.81 in 10.0 mi Variable 3.5 mph - N/A   Clear
2:54 AM 69.1 °F - 57.0 °F 65% 29.81 in 10.0 mi SW 8.1 mph - 0.00 in   Clear
3:54 AM 69.1 °F - 57.0 °F 65% 29.80 in 10.0 mi WSW 8.1 mph - N/A   Clear
4:54 AM 69.1 °F - 57.0 °F 65% 29.78 in 10.0 mi SW 11.5 mph - N/A   Partly Cloudy
5:54 AM 70.0 °F - 57.0 °F 63% 29.79 in 10.0 mi SW 10.4 mph 20.7 mph N/A   Clear
6:54 AM 68.0 °F - 57.0 °F 68% 29.80 in 10.0 mi SW 9.2 mph - N/A   Clear
7:54 AM 68.0 °F - 57.0 °F 68% 29.80 in 10.0 mi SW 8.1 mph - N/A   Clear
8:54 AM 72.0 °F - 59.0 °F 64% 29.81 in 10.0 mi WSW 13.8 mph 21.9 mph N/A   Clear
9:54 AM 75.0 °F - 59.0 °F 57% 29.81 in 10.0 mi WSW 13.8 mph 23.0 mph N/A   Clear
10:54 AM 78.1 °F - 59.0 °F 52% 29.81 in 10.0 mi WSW 18.4 mph 25.3 mph N/A   Clear
11:54 AM 80.1 °F 80.9 °F 60.1 °F 50% 29.81 in 10.0 mi West 16.1 mph 26.5 mph N/A   Clear
12:54 PM 82.0 °F 82.1 °F 59.0 °F 45% 29.80 in 10.0 mi WSW 17.3 mph 31.1 mph N/A   Clear
1:54 PM 82.9 °F 83.2 °F 60.1 °F 46% 29.79 in 10.0 mi WSW 18.4 mph 31.1 mph N/A   Clear
2:54 PM 84.0 °F 84.0 °F 60.1 °F 44% 29.78 in 10.0 mi SW 21.9 mph 28.8 mph N/A   Clear
3:54 PM 84.0 °F 84.0 °F 60.1 °F 44% 29.76 in 10.0 mi WSW 19.6 mph 31.1 mph N/A   Clear
4:54 PM 84.9 °F 85.0 °F 61.0 °F 44% 29.75 in 10.0 mi SW 13.8 mph 24.2 mph N/A   Clear
5:54 PM 84.0 °F 83.5 °F 57.9 °F 41% 29.75 in 10.0 mi WSW 18.4 mph 31.1 mph N/A   Clear
6:54 PM 81.0 °F 81.3 °F 59.0 °F 47% 29.76 in 10.0 mi WSW 12.7 mph 20.7 mph N/A   Clear
7:54 PM 81.0 °F 81.0 °F 57.0 °F 44% 29.77 in 10.0 mi WSW 11.5 mph - N/A   Clear
8:54 PM 79.0 °F - 57.0 °F 47% 29.78 in 10.0 mi SW 9.2 mph - N/A   Scattered Clouds
9:54 PM 75.9 °F - 57.9 °F 54% 29.80 in 10.0 mi SW 6.9 mph - N/A   Mostly Cloudy
10:54 PM 73.9 °F - 57.0 °F 55% 29.81 in 10.0 mi WSW 6.9 mph - N/A   Scattered Clouds
11:44 PM 73.4 °F - 55.4 °F 53% 29.82 in 10.0 mi WSW 9.2 mph - 0.00 in Thunderstorm Partly Cloudy
11:54 PM 73.0 °F - 55.0 °F 53% 29.79 in 10.0 mi WSW 8.1 mph - 0.00 in   Scattered Clouds